Regional Weather Roundup
Issued by NWS Boston, MA

Home | Current Version | Previous Version | Text Only | Print | Product List | Glossary On
Versions: 1 2 3 4 5 6 7 8 9 10 11 12 13 14 15 16 17 18 19 20 21 22 23 24 25 26 27 28 29 30 31 32 33 34 35 36 37 38 39 40 41 42 43 44 45 46 47 48 49 50
000
ASUS41 KBOX 230810
RWRBOX

REGIONAL WEATHER ROUNDUP
NATIONAL WEATHER SERVICE TAUNTON MA
400 AM EDT WED JUL 23 2014

NOTE:  "FAIR" INDICATES FEW OR NO CLOUDS BELOW 12,000 FEET WITH NO
SIGNIFICANT WEATHER AND/OR OBSTRUCTIONS TO VISIBILITY.  THE FOLLOWING
OBSERVATION LOCATIONS DO NOT REPORT PRESENT WEATHER...PROVINCETOWN...
SMITHFIELD...BLOCK ISLAND...KEENE...AND OXFORD.

MAZALL-230900-
EASTERN MASSACHUSETTS

CITY           SKY/WX    TMP DP  RH WIND       PRES   REMARKS
BOSTON         PTCLDY    72  65  78 SW13      29.94F
BEVERLY        CLEAR     71  65  81 SW10      29.93F
LAWRENCE       CLEAR     72  66  81 S7        29.94F
BEDFORD        CLEAR     70  66  87 SW7       29.93F
BLUE HILL        N/A     69  64  84 SW14      29.97F
NORWOOD        CLEAR     71  64  78 SW8       29.96F
MARSHFIELD     CLEAR     72  64  78 SW9       29.97S
PLYMOUTH       CLEAR     69  61  75 S6        29.98F
TAUNTON        CLEAR     71  63  75 SW5       29.97F
NEW BEDFORD    CLEAR     69  63  81 SW6       29.97F
$$

MAZALL-230900-
CAPE COD AND THE ISLANDS

CITY           SKY/WX    TMP DP  RH WIND       PRES   REMARKS
FALMOUTH       CLEAR     70  66  88 SW12      29.99S
HYANNIS        CLEAR     71  64  78 SW9       29.97F
CHATHAM        CLEAR     70  65  84 SW8       30.00F
PROVINCETOWN   CLEAR     68  63  83 SW10      29.96F
NANTUCKET      CLEAR     67  65  93 SW10      30.01F
MARTHAS VNYRD  CLEAR     68  66  93 SW7       30.00F
$$

MAZALL-230900-
CENTRAL AND WESTERN MASSACHUSETTS

CITY           SKY/WX    TMP DP  RH WIND       PRES   REMARKS
WORCESTER      CLEAR     67  64  90 SW10      29.99F
FITCHBURG      CLEAR     73  66  78 CALM      29.95F
ORANGE           N/A    N/A N/A N/A MISG      29.96F
SPRINGFIELD    CLEAR     69  65  86 S6        29.95F
WESTFIELD      CLEAR     70  65  84 S6        29.95F
NORTH ADAMS    MOCLDY    67  66  97 CALM      29.95F FOG
PITTSFIELD     CLEAR     71  67  87 SW5       29.97F
$$

RIZALL-230900-
RHODE ISLAND

CITY           SKY/WX    TMP DP  RH WIND       PRES   REMARKS
PROVIDENCE     CLEAR     71  62  73 S3        29.99S
NEWPORT        CLEAR     70  64  81 SW5       29.99F
BLOCK ISLAND   MOCLDY    68  64  88 SW14      30.01S
SMITHFIELD     CLEAR     70  61  73 SW7       30.00S
WESTERLY       CLEAR     71  64  78 SW3       30.00F
$$

CTZALL-230900-
CONNECTICUT

CITY           SKY/WX    TMP DP  RH WIND       PRES   REMARKS
BRADLEY INTL   CLEAR     71  64  78 S8        29.95F
HARTFORD       CLEAR     71  64  78 S8        29.96F
BRIDGEPORT     CLEAR     73  65  75 SW8       29.99F
DANBURY        CLEAR     72  63  73 W5        30.01F
GROTON         CLEAR     70  65  84 W6        29.99F
NEW HAVEN      CLEAR     74  66  76 SW3       29.99F
CHESTER        FAIR      70  64  83 SW3       30.01S
MERIDEN        CLEAR     70  64  81 S3        29.98F
WILLIMANTIC    CLEAR     69  63  81 CALM      29.99F
OXFORD         CLEAR     68  63  83 SW5       30.02F
$$

MEZ002-015-021-024-NHZ003-005-008-011-012-014-VTZ005-008-230900-
NORTHERN NEW ENGLAND

CITY           SKY/WX    TMP DP  RH WIND       PRES   REMARKS
PORTLAND ME    CLEAR     73  67  81 SW9       29.89F
BANGOR ME      PTCLDY    66  64  93 S7        29.87F
CONCORD NH     CLEAR     71  68  90 CALM      29.92F
MANCHESTER NH  CLEAR     73  68  84 S3        29.91F
NASHUA NH      CLEAR     73  68  84 CALM      29.93F
PORTSMOUTH NH  CLEAR     73  68  85 SW6       29.90F
JAFFREY NH     PTCLDY    68  66  93 SW6       29.98F
KEENE NH       CLEAR     70  61  73 CALM      29.95S
BURLINGTON VT  MOCLDY    76  68  76 S10       29.85S
MT. WASHINGTON FOG       55  55 100 W46G55      N/A  VSB 0
$$

NYZ052-076-230900-
EASTERN NEW YORK

CITY           SKY/WX    TMP DP  RH WIND       PRES   REMARKS
ALBANY         PTCLDY    75  68  78 S6        29.92F
NEW YORK CITY  PTCLDY    75  62  64 SW7       29.99F
$$

ANZALL-230900-
MARINE OBSERVATIONS

STATION/POSITION TIME  TEMP    WIND        PRES    VSBY  WAVE
                       AIR SEA DIR/SP/G                  HT/PER
                 (UTC) (F)     (DEG/KT/KT) (MB)    (MI)  (FT/S)
BOSTON BUOY      NOT AVBL
BUZZARDS BAY     NOT AVBL
NANTUCKET SOUND  NOT AVBL
MASS BAY-STELLWA NOT AVBL
ISLE OF SHOALS   NOT AVBL
S OF BLOCK IS    NOT AVBL
$$

......................KEY.........................
  SKY/WX - SKY CONDITION/PRESENT WEATHER
  TMP    - TEMPERATURE IN FAHRENHEIT
  DWPT   - DEWPOINT IN FAHRENHEIT
  RH     - RELATIVE HUMIDITY IN PERCENT
  WIND   - DIRECTION AND SPEED IN MPH
  PRES   - MEAN SEA LEVEL PRESSURE IN INCHES OF HG
  WCI    - WIND CHILL INDEX
  VSB    - VISIBILITY IN MILES
  HX     - HEAT INDEX
  TC     - TEMPERATURE IN CELSIUS
  VRB    - VARIABLE WIND DIRECTION
  N/A    - NOT AVAILABLE


USA.gov is the U.S. government's official web portal to all federal, state and local government web resources and services.